Track WORLDVIEW 2 now! 10-day predictions WORLDVIEW 2 is classified as:
1 35946U 09055A 23338.16976121 .00000356 00000-0 13307-3 0 9999 2 35946 98.4356 49.8683 0002336 119.5353 240.6067 14.37553157742732